Starlink 4443

operational
NORAD ID: 53508 Int'l Des: 2022-099 Owner: SPXS Country: US Constellation: starlink
LEOCIRCULARRETROGRADESSO

About Starlink 4443

Description loading...

Live Position

Loading 3D Globe...

Upcoming Passes

Altitude History

Altitude vs Time

uPlot chart will show altitude changes over time

Two-Line Element Set

1 53508U 22099AV 26063.30293903 .00000735 00000-0 55168-4 0 9993
2 53508 97.6036 185.9324 0000324 149.1657 210.9589 15.05649729195241
Epoch: Mar 4, 2026 • Age: 19 hours

Current Status

Altitude 551.8 km
Velocity 7.59 km/s
Sub-Earth Point 6.70°N, 83.28°W
Launch Date Aug 12, 2022
Age 3.5 years
Type internet

Technical Details

Classification Payload
Mass 300.00 kg
Dry Mass 275.00 kg
Total Mass 300.00 kg
Length 0.20 m
Diameter 2.80 m
Span 9.00 m
Shape Box + pan
Manufacturer SPXS
Bus Type Starlink
Phase Status In Orbit
Owner/State SPXS/US

Large Constellations

Loading constellations...